Regional Weather Roundup
Issued by NWS Wakefield, VA

Home | Current Version | Previous Version | Graphics & Text | Print | Product List | Glossary On
Versions: 1 2 3 4 5 6 7 8 9 10 11 12 13 14 15 16 17 18 19 20 21 22 23 24 25 26 27 28 29 30 31 32 33 34 35 36 37 38 39 40 41 42 43 44 45 46 47 48 49
000
ASUS41 KAKQ 201810
RWRAKQ

REGIONAL WEATHER ROUNDUP
NATIONAL WEATHER SERVICE WAKEFIELD VA
100 PM EST THU NOV 20 2014

Note: "fair" indicates few or no clouds below 12,000 feet with no
significant weather and/or obstructions to visibility. * = Denotes
station may not report precipitation (e.g., rain,snow,etc.),
thunder or fog.

VAZ042-051-052>054-056-201900-
NORTHERN VIRGINIA

CITY           SKY/WX    TMP DP  RH WIND       PRES   REMARKS
WASH NATIONAL  MOSUNNY   53  26  35 S12       29.93F
DULLES         MOSUNNY   50  22  33 SW10      29.91F
FORT BELVOIR   SUNNY     53  22  29 VRB6      29.92F
QUANTICO       MOSUNNY   53  21  28 SW13G20   29.94F
FREDERICKSBRG* SUNNY     55  25  31 SW12G18   29.93F
STAFFORD*      SUNNY     53  19  26 SW8G16    29.97F
WARRENTON      SUNNY     55  32  42 SW8       29.91F
CULPEPER*      SUNNY     54  23  30 S6        29.91F
MANASSAS*      SUNNY     52  41  66 SW9G18    29.92F
LEESBURG*      SUNNY     52  28  40 SW9       29.91F
WINCHESTER     SUNNY     52  10  19 W14G22    29.89F
FRONT ROYAL*   CLEAR     50  21  32 W8G18     29.88F
LURAY*         CLEAR     54  23  30 W12G20    29.89F
$$

VAZ048-049-060>072-079>083-201900-
CENTRAL AND SOUTH CENTRAL VIRGINIA

CITY           SKY/WX    TMP DP  RH WIND       PRES   REMARKS
RICHMOND       MOSUNNY   57  22  25 W17G25    29.96F
CHESTERFIELD*  CLEAR     55  23  28 W18G26    29.98F
PETERSBURG*    SUNNY     57  22  25 W20G29    29.98F
HANOVER        SUNNY     55  24  30 SW13G22   29.97F
TAPPAHANNOCK*  MOSUNNY   55  18  23 SW9G20    29.96F
QUINTON*       FAIR      54  25  32 W13G24    29.97F
CHARLOTTSVILLE SUNNY     53  21  28 W16G28    29.91F
GORDONSVILLE*  PTCLDY    52  22  30 SW17G24   29.91F
ORANGE*        SUNNY     55  25  30 S16G26    29.92F
LOUISA*        SUNNY     54  25  32 W9        29.92F
BUMPASS*       FAIR      53  24  33 W9G20     29.94F
FARMVILLE*     SUNNY     57  24  27 SW12G21   29.95F
CREWE*         CLEAR     54  22  29 W10G28    29.98F
FORT PICKETT*  CLEAR     55  24  30 SW20G28   29.98F
LUNENBURG*     CLEAR    N/A N/A N/A SW8G28    29.99F
CHASE CITY*    FAIR      56  29  35 W7G18     29.99F
CLARKSVILLE*   FAIR      54  28  37 W9G24     30.01F
SOUTH HILL*    SUNNY     55  26  33 SW12G22   30.06F
LAWRENCEVILLE* CLEAR     56  27  33 W10G22    30.00F
$$

VAZ088>098-201900-
SOUTHEAST VIRGINIA

CITY           SKY/WX    TMP DP  RH WIND       PRES   REMARKS
NORFOLK        SUNNY     58  22  24 SW21G31   29.98F
VIRGINIA BEACH SUNNY     59  25  27 SW17G28   29.99F
NORFOLK NAVAL  SUNNY     59  24  26 SW17G25   30.00F
WEST POINT*    SUNNY     58  19  22 SW14G22   29.98F
SALUDA*        FAIR      54  24  32 W12G22    29.96F
NEWPORT NEWS   SUNNY     59  26  28 W18G24    29.98F
LANGLEY AFB    SUNNY     56  27  32 SW20G29   29.98F
FORT EUSTIS    SUNNY     56  31  38 W10G20    29.97F
WILLIAMSBURG*  SUNNY     59  28  31 W16G29    29.99F
HR EXEC AP*    CLEAR     57  28  33 SW18      30.02F
FRANKLIN*      SUNNY     57  25  28 W16G25    30.01F
WAKEFIELD      SUNNY     56  25  30 SW15G25   29.99F
$$

VAZ020-022-025-037-045-201900-
WEST CENTRAL AND SOUTHWEST VIRGINIA

CITY           SKY/WX    TMP DP  RH WIND       PRES   REMARKS
STAUNTON*      SUNNY     50  18  28 W8G17     29.93F
WAYNESBORO*    CLEAR     48  21  34 SW12G28   29.91F
HOT SPRINGS VA SUNNY     37  20  50 W21G29    29.86S
LYNCHBURG      SUNNY     52  20  28 W15G24    29.97F
DANVILLE       SUNNY     55  26  32 SW21G29   30.02F
SOUTH BOSTON*  CLEAR     56  24  29 SW16G25   30.00F
MARTINSVILLE   SUNNY     56  26  31 W7G16     30.02F
ROANOKE        MOSUNNY   51  20  29 W24G32    29.99F
BLACKSBURG     SUNNY     46  27  46 W13G22    29.99F
DUBLIN*        SUNNY     46  23  41 W18G25    30.01F
MARION*        PTSUNNY   44  24  44 W25G33    30.02F
HILLSVILLE*    MOSUNNY   42  24  47 W16G23    29.99F
RICHLANDS*     PTCLDY    44  24  46 W13G24    30.02F
WISE*          MOSUNNY   39  21  48 W13G24    30.05F
ABINGDON*      MOSUNNY   46  25  43 W20G25    30.06F
$$

MDZ021>025-VAZ099-100-201900-
SOUTHERN MARYLAND AND THE DELMARVA PENINSULA

CITY           SKY/WX    TMP DP  RH WIND       PRES   REMARKS
PATUXENT RIVER MOSUNNY   54  23  30 W18G25    29.93F
BAY BRIDGE APT   N/A     50  23  34 SW9       29.92F
LEONARDTOWN    MOSUNNY   52  23  32 SW13G25   29.94F
DOVER          MOSUNNY   51  26  39 SW12      29.89F
GEORGETOWN     MOSUNNY   53  26  35 SW16G26   29.93F
EASTON         SUNNY     54  28  37 W13G20    29.96F
CAMBRIDGE      SUNNY     54  25  32 SW15      29.93F
SALISBURY      SUNNY     55  26  32 SW18G24   29.94F
OCEAN CITY     SUNNY     53  24  32 W15G23    29.94F
WALLOPS ISLAND SUNNY     53  25  33 W13G22    29.96F
ACCOMACK*      SUNNY     52  25  35 SW16G28   29.97F
$$

NCZ012>017-030>032-201900-
NORTH CENTRAL AND EASTERN NORTH CAROLINA

CITY           SKY/WX    TMP DP  RH WIND       PRES   REMARKS
ROANOKE RAPIDS CLEAR     55  28  35 SW17G23   30.03F
RALEIGH        MOSUNNY   56  26  31 SW17G25   30.06F
ELIZABETH CITY SUNNY     58  29  33 S13       30.04F
AHOSKIE*       SUNNY     56  28  34 CALM      30.04F
EDENTON*       SUNNY     56  28  34 SW9       30.05F
CURRITUCK*     SUNNY     56  23  28 SW10G20   30.03F
KILL DEVIL HLS SUNNY     56  28  32 SW6       30.04F
MANTEO         SUNNY     54  33  44 SW7       30.06F
CAPE HATTERAS  SUNNY     55  32  41 SW18G25   30.09F
TARBORO*       CLEAR     56  26  31 SW12      30.07F
GOLDSBORO      SUNNY     58  27  30 W16       30.07F
WASHINGTON     SUNNY     56  24  29 SW12      30.08F
GREENVILLE     SUNNY     55  27  33 SW8       30.09F
NEW BERN       SUNNY     59  25  27 W13G21    30.10F
WILMINGTON     SUNNY     60  28  29 SW16G23   30.12F
$$

VAZ048-201900-
ELSEWHERE

CITY           SKY/WX    TMP DP  RH WIND       PRES   REMARKS
HARRISBURG PA  MOSUNNY   42  19  39 W21G28    29.90F
BALTIMORE      MOSUNNY   49  22  34 W7        29.91F
ANNAPOLIS      MOSUNNY   52  22  30 SW12G17   29.91F
ANDREWS AFB    SUNNY     52  23  33 SW13      29.91F
PHILADELPHIA   MOSUNNY   48  23  37 SW14      29.91F
WILDWOOD NJ*   MOSUNNY   52  27  37 SW10      29.89F
HENDERSON NC   SUNNY     55  22  27 SW17      30.02F
GREENSBORO     MOSUNNY   55  26  32 W15G24    30.02F
ROCKY MOUNT    SUNNY     56  25  30 SW16      30.07F
$$

VAZ100-201900-
MARINE

STATION/POSITION TIME  TEMP    WIND        PRES    WAVE   SWELL
                       AIR SEA DIR/SP/G            HT/PER HT/PER
                 (UTC) (F)     (DEG/KT/KT) (MB)    (FT/S) (FT/S)
CAPE MAY NJ      1800   46 45  260/  8/  8 1012.8F
LEWES DE         1800   52 48  270/ 13/ 19 1012.9F
15NM E FENWICK I 1800   51 54              1013.4F   5/ 7
OCEAN-CITY-INLET 1800   51 49  280/ 16/ 22 1013.4F
WACHAPREAGUE VA  1800   53 46  230/ 12/ 20 1014.7F
THOMAS POINT MD  1800   49 47  230/ 12/ 14 1014.2F
GOOSES REEF MD   1800   50     250/ 16/ 19 1013.9F
COVE POINT MD    1800   51     280/ 16/ 22 1013.5F
SOLOMONS ISLAND  1800      49                N/A
BISHOPS HEAD MD  1800   48 41  240/ 16/ 18 1013.4F
PINEY POINT MD   1800          290/ 17/ 20   N/A
POTOMAC MD       1800   51     280/ 16/ 21 1013.7F
CAMBRIDGE MD     1800   51 44  240/ 10/ 18 1013.3F
LEWISETTA VA     1800   51 46  260/ 15/ 22 1013.7F
RAPPAHANNOCK LGT 1800          210/ 15/ 18 1015.2F
STINGRAY PT      1800   52     270/ 19/ 27 1015.0F
YORK RVR RNG VA  1800   53     270/ 16/ 19 1014.4F
YORKTOWN VA      1800   54 51  240/ 12/ 17 1014.6F
JAMESTOWN VA     1800   52     280/ 16/ 23   N/A
DOMINION TERM VA 1800   53     250/ 18/ 23 1015.1F
KIPTOPEKE VA     1800      53  240/ 13/ 16   N/A
CHES BAY BRIDGE  1800   54 53  220/ 20/ 30 1014.6F
CAPE HENRY VA    1800   55     220/ 12/ 19 1014.3F
CHESAPEAKE LGHT  1700   49     210/ 18/ 19 1017.5F
WILLOUBY STN VA  1800   53     240/ 23/ 26 1013.2F
S CRANEY ISL VA  1800          230/ 12/ 16 1015.2F
CAPE HENRY BUOY  1800      55                N/A     3/ 4
1ST LANDING BUOY 1800   54     250/ 17/ 21 1015.6F
CAPE CHARLES BUO 1800      54                N/A     2/ 4
64NM E OF VA BCH 1800   53 61  240/ 16/ 19 1016.6F   4/ 5
DUCK PIER NC     1800   51 55  220/  8/ 11 1016.7F
44100 DUCK FRF   1800      58                N/A     2/ 3
44056 DUCK FRF   1800      58                N/A     1/ 5
OREGON INLET NC  1800   48 46  200/ 18/ 20 1018.1F
HATTERAS NC      1800   56 51  240/ 12/ 19 1019.1F
DIAMOND SHLS NC  1800   57     230/ 19/ 27 1019.1F   4/ 6
CAPE LOOKOUT NC  1700   54     240/ 16/ 21 1020.7F


USA.gov is the U.S. government's official web portal to all federal, state and local government web resources and services.